Danbury, CT

4:29 AM EDT on September 29, 2016 (GMT -0400)
Danbury Municipal

Weather History for KDXR - October, 2013

Change the Weather History Date:

Thursday, October 31, 2013

  Actual Average Record
Temperature  
Mean Temperature 48 °F -  
Max Temperature 62 °F 55 °F 73 °F (1999)
Min Temperature 35 °F 34 °F 21 °F (1966)
Degree Days  
Heating Degree Days 16    
Moisture  
Dew Point 43 °F    
Average Humidity 88    
Maximum Humidity 100    
Minimum Humidity 77    
Precipitation  
Precipitation 0.00 in - - ()
Sea Level Pressure  
Sea Level Pressure 30.14 in    
Wind  
Wind Speed 1 mph (South)    
Max Wind Speed 12 mph    
Max Gust Speed 18 mph    
Visibility 4 miles    
Events Fog , Rain    
Averages and records for this station are not official NWS values.
T = Trace of Precipitation, MM = Missing Value Source: NWS Daily Summary

Daily Weather History Graph

Daily Weather History Graph

Search for Another Location

Airport or City:

Trip Planner

Search our weather history database for the weather conditions in past years. The results will help you decide how hot, cold, wet, or windy it might be!

Date:

Astronomy

Oct. 31, 2013 Rise Set
Actual Time 7:24 AM EDT 5:49 PM EDT
Civil Twilight 6:55 AM EDT 6:18 PM EDT
Nautical Twilight 6:23 AM EDT 6:51 PM EDT
Astronomical Twilight 5:50 AM EDT 7:23 PM EDT
Moon 4:09 AM EDT (10/31) 4:08 PM EDT (10/31)
Length of Visible Light 11h 22m
Length of Day
10h 25m
Waning Crescent, 10% of the Moon is Illuminated
Oct 31
Waning Crescent
Nov 3
New
Nov 10
First Quarter
Nov 17
Full
Nov 25
Last Quarter

Hourly Weather History & Observations

Time (EDT) Temp. Dew Point Humidity Pressure Visibility Wind Dir Wind Speed Gust Speed Precip Events Conditions
12:27 AM 37.4 °F 33.8 °F 87% 30.25 in 5.0 mi Calm Calm - N/A   Scattered Clouds
12:53 AM 35.1 °F 32.0 °F 89% 30.25 in 4.0 mi Calm Calm - N/A   Clear
1:01 AM 35.6 °F 33.8 °F 93% 30.24 in 1.5 mi Calm Calm - N/A   Clear
1:04 AM 35.6 °F 33.8 °F 93% 30.24 in 1.0 mi Calm Calm - N/A   Mist
1:13 AM 35.6 °F 33.8 °F 93% 30.24 in 0.8 mi Calm Calm - N/A   Mist
1:17 AM 35.6 °F 33.8 °F 93% 30.24 in 1.5 mi Calm Calm - N/A   Scattered Clouds
1:19 AM 35.6 °F 33.8 °F 93% 30.24 in 3.0 mi Calm Calm - N/A   Scattered Clouds
1:29 AM 35.6 °F 33.8 °F 93% 30.24 in 5.0 mi Calm Calm - N/A   Mostly Cloudy
1:37 AM 35.6 °F 33.8 °F 93% 30.24 in 4.0 mi Calm Calm - N/A   Mostly Cloudy
1:47 AM 35.6 °F 33.8 °F 93% 30.24 in 1.5 mi Calm Calm - N/A   Mostly Cloudy
1:51 AM 35.6 °F 33.8 °F 93% 30.24 in 0.8 mi Calm Calm - N/A   Overcast
1:53 AM 35.1 °F 33.1 °F 92% 30.24 in 0.8 mi Calm Calm - N/A   Overcast
2:00 AM 37.4 °F 33.8 °F 87% 30.23 in 1.2 mi Calm Calm - N/A   Overcast
2:06 AM 35.6 °F 33.8 °F 93% 30.23 in 3.0 mi Calm Calm - N/A   Overcast
2:26 AM 35.6 °F 33.8 °F 93% 30.23 in 3.0 mi Calm Calm - N/A   Overcast
2:37 AM 37.4 °F 35.6 °F 93% 30.23 in 1.5 mi Calm Calm - N/A   Overcast
2:40 AM 37.4 °F 35.6 °F 93% 30.23 in 0.8 mi Calm Calm - N/A   Overcast
2:53 AM 37.9 °F 36.0 °F 93% 30.23 in 0.2 mi Calm Calm - N/A Fog Fog
3:53 AM 37.0 °F 35.1 °F 93% 30.22 in 0.2 mi Calm Calm - N/A Fog Fog
4:46 AM 37.4 °F 35.6 °F 93% 30.21 in 1.0 mi Calm Calm - N/A   Overcast
4:53 AM 37.9 °F 36.0 °F 93% 30.22 in 2.0 mi Calm Calm - N/A   Overcast
5:08 AM 37.4 °F 37.4 °F 100% 30.21 in 2.5 mi Calm Calm - N/A   Overcast
5:26 AM 39.2 °F 37.4 °F 93% 30.20 in 2.5 mi Calm Calm - N/A   Overcast
5:33 AM 39.2 °F 37.4 °F 93% 30.20 in 3.0 mi Calm Calm - N/A   Overcast
5:53 AM 39.0 °F 37.0 °F 93% 30.20 in 4.0 mi Calm Calm - N/A   Overcast
6:11 AM 39.2 °F 37.4 °F 93% 30.20 in 5.0 mi Calm Calm - N/A   Overcast
6:53 AM 41.0 °F 37.9 °F 89% 30.20 in 6.0 mi Calm Calm - N/A   Overcast
7:21 AM 42.8 °F 39.2 °F 87% 30.19 in 5.0 mi Calm Calm - N/A   Overcast
7:53 AM 43.0 °F 39.9 °F 89% 30.19 in 5.0 mi Calm Calm - N/A   Overcast
8:53 AM 45.0 °F 41.0 °F 86% 30.19 in 4.0 mi Calm Calm - N/A   Overcast
8:59 AM 46.4 °F 41.0 °F 81% 30.18 in 4.0 mi Calm Calm - N/A   Haze
9:06 AM 46.4 °F 42.8 °F 87% 30.18 in 4.0 mi Calm Calm - N/A   Overcast
9:53 AM 48.9 °F 44.1 °F 83% 30.17 in 4.0 mi Calm Calm - N/A   Haze
10:53 AM 53.1 °F 46.0 °F 77% 30.13 in 4.0 mi Calm Calm - N/A   Haze
11:53 AM 57.9 °F 53.1 °F 84% 30.11 in 5.0 mi SSE 5.8 mph - N/A   Haze
12:18 PM 59.0 °F 53.6 °F 82% 30.09 in 6.0 mi SSE 6.9 mph - N/A   Haze
12:27 PM 59.0 °F 53.6 °F 82% 30.08 in 6.0 mi South 9.2 mph - N/A   Haze
12:53 PM 60.1 °F 54.0 °F 80% 30.06 in 6.0 mi SSE 6.9 mph - 0.00 in Rain Light Rain
1:53 PM 62.1 °F 55.0 °F 78% 30.03 in 6.0 mi South 6.9 mph - 0.00 in Rain Light Rain
2:20 PM 62.6 °F 55.4 °F 77% 30.01 in 7.0 mi South 6.9 mph 16.1 mph 0.00 in   Overcast
2:53 PM 62.1 °F 55.0 °F 78% 30.00 in 6.0 mi South 5.8 mph - 0.00 in   Haze
3:51 PM 62.6 °F 55.4 °F 77% 29.98 in 5.0 mi South 8.1 mph - N/A   Haze
3:52 PM 61.0 °F 55.9 °F 83% 29.98 in 5.0 mi South 8.1 mph - N/A   Haze
4:53 PM 61.0 °F 55.9 °F 83% 29.98 in 5.0 mi South 6.9 mph - 0.00 in Rain Light Rain
5:53 PM 61.0 °F 55.9 °F 83% 29.96 in 7.0 mi South 5.8 mph - 0.00 in   Overcast
6:53 PM 62.1 °F 55.9 °F 80% 29.94 in 7.0 mi South 8.1 mph - 0.00 in Rain Light Rain
7:53 PM 62.1 °F 55.9 °F 80% 29.95 in 5.0 mi SSW 8.1 mph - 0.00 in Rain Light Rain
8:53 PM 60.1 °F 55.0 °F 83% 29.90 in 5.0 mi South 11.5 mph 16.1 mph N/A Rain Light Rain
9:53 PM 60.1 °F 54.0 °F 80% 29.88 in 9.0 mi South 9.2 mph - N/A Rain Light Rain
10:53 PM 60.1 °F 55.0 °F 83% 29.84 in 9.0 mi South 6.9 mph - N/A Rain Light Rain
11:53 PM 61.0 °F 55.9 °F 83% 29.82 in 6.0 mi SSW 9.2 mph 18.4 mph N/A Rain Light Rain